Regional Weather Roundup
Issued by NWS Cleveland, OH

Home | Current Version | Previous Version | Graphics & Text | Print | Product List | Glossary On
Versions: 1 2 3 4 5 6 7 8 9 10 11 12 13 14 15 16 17 18 19 20 21 22 23 24 25 26 27 28 29 30 31 32 33 34 35 36 37 38 39 40 41 42 43 44 45 46 47 48 49 50
000
ASUS41 KCLE 171710
RWRCLE
OHIO REGIONAL WEATHER ROUNDUP
NATIONAL WEATHER SERVICE WILMINGTON, OH
100 PM EDT WED SEP 17 2014

NOTE: "FAIR" INDICATES FEW OR NO CLOUDS BELOW 12,000 FEET WITH NO
SIGNIFICANT WEATHER AND/OR OBSTRUCTIONS TO VISIBILITY.

OHZ001>008-015>018-024>027-034-035-043-044-171800-
   NORTHWEST OHIO

CITY           SKY/WX    TMP DP  RH WIND       PRES   REMARKS
DEFIANCE       PTSUNNY   65  45  48 VRB6      30.04F
FINDLAY        MOSUNNY   65  45  48 W3        30.03F
TOLEDO EXPRESS SUNNY     64  45  49 W10       30.02F
TOLEDO METCALF MOSUNNY   64  47  53 W14       30.03F
LIMA           PTSUNNY   64  46  52 W6        30.04F
$$

OHZ009>014-019>023-028>033-038-089-171800-
   NORTHEAST OHIO

CITY           SKY/WX    TMP DP  RH WIND       PRES   REMARKS
CLE-HOPKINS    PTSUNNY   62  47  57 W8        30.04F
CLE-LAKEFRONT  MOSUNNY   64  46  52 W12       30.01F
CUY CO. ARPT   PTSUNNY   61  48  63 SW9       30.03F
LORAIN-ELYRIA  MOSUNNY   67  48  50 W8        30.03F
ASHTABULA      MOSUNNY   63  47  55 CALM      30.03F
AKRON-CANTON   MOSUNNY   65  43  44 NW6       30.03F
WOOSTER        MOSUNNY   65  46  50 CALM      30.04F
MANSFIELD      MOSUNNY   64  43  46 W5        30.04F
YOUNGSTOWN     PTSUNNY   64  46  52 VRB3      30.03F
$$

OHZ042-051>053-060>062-070>072-077>081-171800-
  SOUTHWEST OHIO

CITY           SKY/WX    TMP DP  RH WIND       PRES   REMARKS
CINC-COVINGTON CLOUDY    62  49  62 CALM      30.05F
CINC-LUNKEN    PTSUNNY   63  49  60 W3        30.06F
HAMILTON       CLOUDY    63  49  60 CALM      30.06F
DAYTON         PTSUNNY   61  47  59 CALM      30.06F
WRIGHT-PAT AFB PTSUNNY   63  48  59 VRB2      30.05F
DAYTON GENERAL CLOUDY    61  48  62 SW3       30.05S
WILMINGTON     CLOUDY    60  46  59 E3        30.05F
$$

OHZ036-037-039>041-045>050-054>059-063>069-073>076-082>088-171800-
  CENTRAL AND SOUTHEAST OHIO

CITY           SKY/WX    TMP DP  RH WIND       PRES   REMARKS
COLUMBUS       PTSUNNY   66  48  52 CALM      30.03F
OSU AIRPORT      N/A     64  47  53 CALM      30.03F
BOLTON FIELD   PTSUNNY   64  52  63 CALM      30.04F
RICKENBACK AFB PTSUNNY   64  49  58 CALM      30.03F
NEWARK         CLOUDY    65  47  52 CALM      30.02F
MARION         MOSUNNY   64  45  49 VRB6      30.04F
LANCASTER      CLOUDY    66  51  58 CALM      30.03F
ZANESVILLE     MOSUNNY   67  47  48 CALM      30.02F
NEW PHILLY     PTSUNNY   68  47  46 VRB6      30.03F
$$



USA.gov is the U.S. government's official web portal to all federal, state and local government web resources and services.